Location: Haut Kerinec
(48.0623°N, 4.4081°W)
Time: 18:20:19
(UTC+00:00)

STARLINK-1212 - Pass Details

Date: 01 June 2020
Orbit: 548 x 551 km, 53.0° (Epoch: 02 July)

Event Time Altitude Azimuth Distance (km) Brightness Sun altitude
Rises 21:33:00 0° 292° (WNW) 2,713 8.3 -10.8°
Reaches altitude 10° 21:35:18 10° 297° (WNW) 1,818 7.4 -11.1°
Maximum altitude 21:39:19 49° 14° (NNE) 705 4.4 -11.5°
Drops below altitude 10° 21:43:19 10° 90° (E) 1,810 5.9 -11.9°
Enters shadow 21:44:09 - 93° (E) 2,133 6.3 -12.0°
